Weather History for Havre, MT

Change the Weather History Date:

Monday, January 7, 2013

  Actual Average Record
Temperature  
Mean Temperature 29 °F 17 °F  
Max Temperature 39 °F 28 °F 62 °F (2002)
Min Temperature 18 °F 6 °F -38 °F (1886)
Degree Days  
Heating Degree Days 36 48  
Month to date heating degree days 297 336  
Since 1 July heating degree days 3667 3802  
Cooling Degree Days 0 0  
Month to date cooling degree days 0 0  
Year to date cooling degree days 0 0  
Moisture  
Dew Point 21 °F    
Average Humidity 70    
Maximum Humidity 84    
Minimum Humidity 56    
Precipitation  
Precipitation 0.00 in 0.01 in 0.45 in (1945)
Month to date precipitation 0.18 0.09  
Year to date precipitation 0.18 0.09  
Snow  
Snow 0.00 in 0.20 in 6.10 in (1969)
Month to date snowfall 2.0 1.9  
Since 1 July snowfall 27.0 16.9  
Snow Depth 1.00 in    
Sea Level Pressure  
Sea Level Pressure 29.77 in    
Wind  
Wind Speed 9 mph (SW)    
Max Wind Speed 23 mph    
Max Gust Speed 29 mph    
Visibility 10 miles    
Events      
T = Trace of Precipitation, MM = Missing Value Source: NWS Daily Summary

Daily Weather History Graph

Daily Weather History Graph

Search for Another Location

Airport:

Trip Planner

Search our weather history database for the weather conditions in past years. The results will help you decide how hot, cold, wet, or windy it might be!

Date:

Astronomy

Jan. 07, 2013 Rise Set
Actual Time 8:09 AM MST 4:41 PM MST
Civil Twilight 7:33 AM MST 5:17 PM MST
Nautical Twilight 6:54 AM MST 5:57 PM MST
Astronomical Twilight 6:16 AM MST 6:35 PM MST
Moon 3:32 AM MST (1/7) 12:59 PM MST (1/7)
Length of Visible Light 9h 43m
Length of Day
8h 31m
Waning Crescent, 22% of the Moon is Illuminated
Jan 7
Waning Crescent
Jan 11
New
Jan 18
First Quarter
Jan 26
Full
Feb 3
Last Quarter

Hourly Weather History & Observations

Time (MST) Temp. Windchill Dew Point Humidity Pressure Visibility Wind Dir Wind Speed Gust Speed Precip Events Conditions
12:53 AM 23.0 °F 18.4 °F 16.0 °F 74% 29.88 in 10.0 mi Variable 3.5 mph - N/A   Clear
1:53 AM 21.0 °F 12.4 °F 15.1 °F 78% 29.90 in 10.0 mi SW 6.9 mph - N/A   Clear
2:53 AM 24.1 °F 12.0 °F 16.0 °F 71% 29.90 in 10.0 mi WSW 13.8 mph - N/A   Clear
3:53 AM 26.1 °F 15.0 °F 18.0 °F 71% 29.91 in 10.0 mi WSW 12.7 mph - N/A   Scattered Clouds
4:53 AM 26.1 °F 15.6 °F 19.0 °F 75% 29.91 in 10.0 mi WSW 11.5 mph - N/A   Clear
5:53 AM 21.9 °F 10.4 °F 16.0 °F 78% 29.94 in 10.0 mi WSW 11.5 mph - N/A   Partly Cloudy
6:53 AM 19.0 °F 6.1 °F 15.1 °F 85% 29.94 in 10.0 mi SSW 12.7 mph - N/A   Clear
7:53 AM 18.0 °F 7.7 °F 12.9 °F 81% 29.94 in 10.0 mi SSW 8.1 mph - N/A   Clear
8:53 AM 19.0 °F 6.1 °F 14.0 °F 81% 29.94 in 10.0 mi SW 12.7 mph - N/A   Clear
9:53 AM 23.0 °F 15.8 °F 16.0 °F 74% 29.92 in 10.0 mi WNW 5.8 mph - N/A   Clear
10:53 AM 27.0 °F 23.0 °F 19.0 °F 72% 29.91 in 10.0 mi WNW 3.5 mph - N/A   Clear
11:53 AM 32.0 °F - 21.2 °F 64% 29.76 in 10.0 mi Calm Calm - N/A   Clear
12:53 PM 36.0 °F - 21.9 °F 57% 29.79 in 10.0 mi Calm Calm - N/A   Clear
1:53 PM 37.0 °F 32.4 °F 25.0 °F 62% 29.75 in 10.0 mi SSW 5.8 mph - N/A   Clear
2:53 PM 37.9 °F 32.1 °F 25.0 °F 60% 29.71 in 10.0 mi SSW 8.1 mph - N/A   Clear
3:53 PM 35.6 °F 29.2 °F 24.8 °F 65% 29.61 in 10.0 mi SSW 8.1 mph - N/A   Clear
4:53 PM 30.9 °F - 21.9 °F 69% 29.65 in 10.0 mi Calm Calm - N/A   Clear
5:53 PM 32.0 °F 27.5 °F 21.9 °F 66% 29.64 in 10.0 mi West 4.6 mph - N/A   Overcast
6:53 PM 37.9 °F 30.0 °F 27.0 °F 65% 29.61 in 10.0 mi SW 12.7 mph - N/A   Overcast
7:53 PM 37.0 °F 29.8 °F 28.9 °F 73% 29.57 in 10.0 mi SW 10.4 mph - N/A   Overcast
8:53 PM 37.0 °F 26.2 °F 28.0 °F 70% 29.56 in 10.0 mi SW 21.9 mph - N/A   Overcast
9:53 PM 37.0 °F 27.4 °F 28.0 °F 70% 29.55 in 10.0 mi SW 17.3 mph - N/A   Overcast
10:53 PM 37.0 °F 27.0 °F 28.0 °F 70% 29.56 in 10.0 mi SW 18.4 mph - N/A   Partly Cloudy
11:53 PM 36.0 °F 26.3 °F 27.0 °F 70% 29.57 in 10.0 mi SW 16.1 mph - N/A   Overcast